• Processing (Info)

  • MPEC 2019-N25 : 2019 NC

    The following Minor Planet Electronic Circular may be linked-to from your own Web pages, but must not otherwise be redistributed electronically.

    A form allowing access to any MPEC is at the bottom of this page.


    Read MPEC 2019-N24 Read MPEC 2019-N26


    M.P.E.C. 2019-N25                                Issued 2019 July 2, 12:20 UT  
    
         The Minor Planet Electronic Circulars contain information on unusual
             minor planets and routine data on comets.  They are published
        on behalf of Division F of the International Astronomical Union by the
              Minor Planet Center, Smithsonian Astrophysical Observatory,
                              Cambridge, MA 02138, U.S.A.
    
                 Prepared using the Tamkin Foundation Computer Network
    
                                  MPC@CFA.HARVARD.EDU
                URL https://www.minorplanetcenter.net/    ISSN 1523-6714
    
                                     2019 NC                                 
    
    Observations:
         K19N00C  C2019 05 07.40111914 11 49.163-15 05 17.76         22.4 GVEN025F51
         K19N00C  C2019 05 07.41366114 11 48.543-15 05 17.57         22.7 GVEN025F51
         K19N00C  C2019 05 07.44082014 11 47.251-15 05 16.59         23.1 GVEN025F51
         K19N00C  C2019 05 09.34377614 10 36.926-15 04 28.69         23.1 GVEN025F51
         K19N00C  C2019 05 09.35625114 10 36.314-15 04 28.76         22.8 GVEN025F51
         K19N00C  C2019 05 09.38115314 10 35.106-15 04 28.39         22.8 GVEN025F51
         K19N00C  C2019 05 28.30969014 02 09.790-15 27 02.24         22.2 GVEN025F51
         K19N00C  C2019 05 28.32079114 02 09.557-15 27 05.10         22.6 GVEN025F51
         K19N00C  C2019 05 28.33187514 02 09.315-15 27 07.66         22.4 GVEN025F51
         K19N00C* C2019 07 01.27501 15 38 27.674-26 56 16.75         20.8 wUEN025F51
         K19N00C  C2019 07 01.28671 15 38 34.175-26 56 49.60         20.9 wUEN025F51
         K19N00C  C2019 07 01.31007 15 38 47.136-26 57 54.29         20.4 wUEN025F51
         K19N00C  C2019 07 02.16818 15 47 49.68 -27 37 43.5          19.8 GVEN025I52
         K19N00C  C2019 07 02.17117 15 47 51.50 -27 37 51.0          19.9 GVEN025I52
         K19N00C  C2019 07 02.17746 15 47 55.32 -27 38 09.1          20.1 GVEN025I52
         K19N00C  C2019 07 02.17843 15 47 55.92 -27 38 12.3          20.0 GVEN025I52
         K19N00C ^C2019 07 02.26626315 48 55.883-27 41 58.88         19.63GVEN025568
         K19N00C ^C2019 07 02.26723415 48 56.478-27 42 01.66         19.62GVEN025568
    
    Observer details:
    568 Mauna Kea.  Observers R. Wainscoat, C. Wipper, T. Burdullis.  
        Measurers R. Weryk, R. Wainscoat.  
        3.6-m Canada-France-Hawaii Telescope + CCD.
    F51 Pan-STARRS 1, Haleakala.  Observers J. Bulger, K. Chambers, T. Lowe,
        E. Magnier, A. Schultz, M. Willman.  Measurers S. Chastel, M. Huber,
        Y. Ramanjooloo, R. Wainscoat, R. Weryk, K. Chambers, T. de Boer, L. Denneau,
        J. Fairlamb, H. Flewelling, C.-C. Lin, E. Magnier.  
        1.8-m Ritchey-Chretien + CCD.
    I52 Steward Observatory, Mt. Lemmon Station.  Observer H. Groeller.  
        Measurers B. M. Africano, E. J. Christensen, G. A. Farneth, D. C. Fuls,
        A. R. Gibbs, A. D. Grauer, H. Groeller, R. A. Kowalski, S. M. Larson,
        G. J. Leonard, T. A. Pruyne, D. Rankin, R. L. Seaman, F. C. Shelly.  
        1.0-m reflector + CCD.
    
    Orbital elements:
    2019 NC                                                  Earth MOID = 0.0573 AU
    Epoch 2019 Apr. 27.0 TT = JDT 2458600.5                 MPC
    M 346.26604              (2000.0)            P               Q
    n   0.19142093     Peri.  290.96688     +0.23454021     +0.97210567
    a   2.9817857      Node   352.59733     -0.88837074     +0.21383247
    e   0.6399326      Incl.    0.53731     -0.39470028     +0.09636516
    P   5.15           H   24.3           G   0.15           U   4
    Residuals in seconds of arc
    190507 F51  0.0   0.2+    190528 F51  0.1-  0.1+    190702 I52  0.3+  0.3-
    190507 F51  0.2-  0.1+    190528 F51  0.0   0.1-    190702 I52  0.2+  0.6+
    190507 F51  0.1+  0.1+    190528 F51  0.0   0.0     190702 I52  0.2-  0.2+
    190509 F51  0.1+  0.0     190701 F51  0.1+  0.1-    190702 I52  0.1-  0.3-
    190509 F51  0.0   0.2-    190701 F51  0.1+  0.1-    190702 568  0.0   0.0
    190509 F51  0.0   0.2-    190701 F51  0.2-  0.1+    190702 568  0.0   0.0
    
    Ephemeris:
    2019 NC                  a,e,i = 2.98, 0.64, 1                   q = 1.0736
    Date    TT    R. A. (2000) Decl.     Delta      r    Elong.  Phase     V
    2019 06 02    14 02 31.3 -15 50 06   0.1903  1.1716   142.9    31.4    22.4
    ...
    2019 06 17    14 20 33.8 -18 57 05   0.1281  1.1081   133.6    41.6    21.7
    ...
    2019 06 25    14 51 08.2 -22 37 15   0.09829 1.0869   133.9    42.4    21.1
    ...
    2019 07 01    15 35 41.2 -26 42 17   0.07893 1.0774   138.8    38.4    20.5
    2019 07 02    15 45 58.1 -27 28 13   0.07614 1.0763   140.2    37.2    20.4
    2019 07 03    15 57 16.2 -28 14 24   0.07350 1.0755   141.8    35.8    20.3
    ...
    2019 07 09    17 28 44.1 -31 52 52   0.06234 1.0738   155.5    23.1    19.5
    ...
    2019 07 17    19 58 16.7 -28 30 43   0.06481 1.0806   172.0     7.5    19.1
    ...
    2019 08 01    22 11 52.1 -15 00 50   0.1123  1.1203   158.4    19.5    20.8
    
    A. U. Tomatic                (C) Copyright 2019 MPC           M.P.E.C. 2019-N25
    


    Read MPEC 2019-N24 Read MPEC 2019-N26


    MPEC number:

    Enter an MPEC number in one of the following forms:

    • 1997-B01 (the full form)
    • J97B01 (the packed version of the full form)
    • B01 (the abbreviated form)